Location: Baix
(44.7118°N, 4.7648°E)
Time: 19:11:58
(UTC+00:00)

Vanguard 2 - Visible Passes

Search period start: 19 June 2021 00:00
Search period end: 29 June 2021 00:00
Orbit: 552 x 2937 km, 32.9° (Epoch: 18 June)

Date Brightness Start Highest point End Pass type
(mag) Time Alt. Az. Time Alt. Az. Time Alt. Az.
19 Jun 9.5 22:00:09 10° WSW 22:04:01 16° SSW 22:04:30 15° SSW visible
20 Jun 9.4 20:05:37 10° WSW 20:14:04 32° SSW 20:19:36 10° SE visible
20 Jun 9.8 22:19:13 10° SW 22:21:11 11° SW 22:21:11 11° SW visible
21 Jun 9.5 20:23:28 10° WSW 20:31:25 29° SSW 20:36:27 12° SSE visible
22 Jun 9.6 20:41:28 10° WSW 20:48:42 24° SSW 20:53:06 13° SSE visible
23 Jun 9.7 20:59:43 10° WSW 21:05:52 20° SW 21:09:46 12° S visible
24 Jun 10.0 21:18:24 10° WSW 21:22:57 15° SW 21:26:25 10° S visible
25 Jun 10.2 21:38:53 10° SW 21:39:55 10° SW 21:40:55 10° SW visible
27 Jun 10.2 19:58:35 10° W 20:07:15 24° SW 20:13:26 10° SSE visible
28 Jun 10.3 20:17:11 10° W 20:24:17 18° SW 20:29:41 10° S visible
